This is the latest recevied weather packets stored in our database for station/object YD2CLX-13. If no packets are shown the sender has not sent any weather packets the latest 10 day(s).
| Time | Temp. | Humidity | Pressure | Rain* | Wind** | Luminosity | Snow |
|---|---|---|---|---|---|---|---|
| 1788154298 | 55° F | 54% | 600.5 mmHg | 0 in | - | - | - |
| 1788153683 | 58° F | 53% | 600.6 mmHg | 0 in | - | - | - |
| 1788151228 | 54° F | 53% | 600.7 mmHg | 0 in | - | - | - |
| 1788148772 | 58° F | 49% | 601 mmHg | 0 in | - | - | - |
| 1788146316 | 58° F | 50% | 601.2 mmHg | 0 in | - | - | - |
| 1788144473 | 59° F | 50% | 601.3 mmHg | 0 in | - | - | - |
| 1788143859 | 60° F | 46% | 601.3 mmHg | 0 in | - | - | - |
| 1788142632 | 58° F | 47% | 601.3 mmHg | 0 in | - | - | - |
| 1788138948 | 59° F | 51% | 601.2 mmHg | 0 in | - | - | - |
| 1788137720 | 60° F | 53% | 601 mmHg | 0 in | - | - | - |
| 1788137106 | 60° F | 54% | 601 mmHg | 0 in | - | - | - |
| 1788136492 | 60° F | 55% | 601 mmHg | 0 in | - | - | - |
| 1788133434 | 38° F | 56% | 600.7 mmHg | 0 in | - | - | - |
| 1788131610 | 34° F | 55% | 600.6 mmHg | 0 in | - | - | - |
| 1788129124 | 32° F | 55% | 600.4 mmHg | 0 in | - | - | - |
| 1788124827 | 34° F | 55% | 599.9 mmHg | 0 in | - | - | - |
| 1788122371 | 35° F | 55% | 599.6 mmHg | 0 in | - | - | - |
| 1788119328 | 37° F | 55% | 599.5 mmHg | 0 in | - | - | - |
| 1788116231 | 35° F | 54% | 599.5 mmHg | 0 in | - | - | - |
| 1788115618 | 36° F | 55% | 599.6 mmHg | 0 in | - | - | - |
| 1788115004 | 37° F | 54% | 599.6 mmHg | 0 in | - | - | - |
| 1788114390 | 37° F | 54% | 599.7 mmHg | 0 in | - | - | - |
| 1788113162 | 37° F | 54% | 599.8 mmHg | 0 in | - | - | - |
| 1788112548 | 38° F | 54% | 599.8 mmHg | 0 in | - | - | - |
| 1788111933 | 38° F | 54% | 599.8 mmHg | 0 in | - | - | - |
* Rain latest hour (hover to see other rain measurements)
** Current wind speed in m/s (hover to see current wind gust speed)